Regional Weather Roundup
Issued by NWS Little Rock, AR

Home | Current Version | Previous Version | Text Only | Print | Product List | Glossary On
Versions: 1 2 3 4 5 6 7 8 9 10 11 12 13 14 15 16 17 18 19 20 21 22 23 24 25 26 27 28 29 30 31 32 33 34 35 36 37 38 39 40 41 42 43 44 45 46 47 48 49
000
ASUS44 KLZK 211005
RWRLZK

WEATHER ROUNDUP FOR ARKANSAS
NATIONAL WEATHER SERVICE LITTLE ROCK AR
500 AM CDT SUN SEP 21 2014

NOTE: "FAIR" INDICATES FEW OR NO CLOUDS BELOW 12,000 FEET WITH NO
SIGNIFICANT WEATHER AND/OR OBSTRUCTIONS TO VISIBILITY.

ARZ001-003-010-029-211100-
NORTHWEST ARKANSAS

CITY           SKY/WX    TMP DP  RH WIND       PRES   REMARKS
FAYETTEVILLE   PTCLDY    65  65 100 S3        30.06S
FORT SMITH     CLEAR     70  68  93 CALM      30.02F FOG
HARRISON       PTCLDY    70  66  87 W5        30.04S
BENTONVILLE    MOCLDY    70  64  83 CALM      30.06R
ROGERS         CLOUDY    71  66  84 SW3       30.06S
SILOAM SPGS    CLOUDY    70  63  78 CALM      30.06S
HIGHFILL       MOCLDY    68  67  96 SW5       30.05S
$$

ARZ004-005-016-211100-
NORTH CENTRAL ARKANSAS

CITY           SKY/WX    TMP DP  RH WIND       PRES   REMARKS
BATESVILLE     CLEAR     68  64  88 CALM      29.99F
FLIPPIN        CLEAR     70  63  78 SW3       30.01S
MTN HOME       CLEAR     69  66  90 W3        30.01S
$$

ARZ040-041-211100-
WEST CENTRAL ARKANSAS

CITY           SKY/WX    TMP DP  RH WIND       PRES   REMARKS
MENA             N/A     64  63  94 CALM      30.06S
MOUNT IDA      CLEAR     65  63  93 CALM      30.02S FOG
$$

ARZ009-017-025-026-028-211100-
NORTHEAST ARKANSAS

CITY           SKY/WX    TMP DP  RH WIND       PRES   REMARKS
CORNING          N/A     68  68 100 SW5       29.98R
JONESBORO      CLEAR     70  66  87 CALM      29.98S
NEWPORT        CLEAR     69  66  90 SW3       30.00S
WALNUT RIDGE   CLEAR     66  54  63 S5        29.97S
BLYTHEVILLE    CLEAR     70  68  93 SW5       29.98R
$$

ARZ022-023-033-042-044-211100-
CENTRAL ARKANSAS

CITY           SKY/WX    TMP DP  RH WIND       PRES   REMARKS
LITTLE ROCK    CLEAR     70  66  87 CALM      30.00F
N LITTLE ROCK    N/A     73  68  85 W5        30.00F
JACKSONVILLE   CLEAR     67  66  97 W5        30.00F
SEARCY         CLEAR     65  65 100 CALM      30.00F FOG
HOT SPRINGS    CLEAR     68  67  96 SW3       30.03S FOG
RUSSELLVILLE   CLEAR     67  65  93 CALM      30.02S FOG
CLINTON        FAIR      64  64 100 CALM      30.03S FOG
$$

ARZ036-211100-
EAST ARKANSAS

CITY           SKY/WX    TMP DP  RH WIND       PRES   REMARKS
WEST MEMPHIS   CLEAR     65  65 100 CALM      29.98S FOG
$$

ARZ050-053-066-070-073-211100-
SOUTHWEST ARKANSAS

CITY           SKY/WX    TMP DP  RH WIND       PRES   REMARKS
ARKADELPHIA    FAIR      66  66 100 CALM      30.02R FOG
CAMDEN         FOG       66  64  94 CALM      30.00S VSB<1/4
TEXARKANA      CLEAR     69  67  93 CALM      30.02S
EL DORADO      CLEAR     66  66 100 CALM      30.01S
DE QUEEN       FOG       67  67 100 CALM      30.01S VSB 1/4
$$

ARZ056-057-069-211100-
SOUTHEAST ARKANSAS

CITY           SKY/WX    TMP DP  RH WIND       PRES   REMARKS
PINE BLUFF     CLEAR     69  67  93 CALM      30.00S
STUTTGART        N/A     66  64  94 W3        30.00S VSB 3/4
MONTICELLO     CLEAR     69  65  86 CALM      30.00S

$$




USA.gov is the U.S. government's official web portal to all federal, state and local government web resources and services.